sat.trackr.live / text

‹ back to catalog

FLOCK 4H-30

NORAD 66733 · 2025-276BV

PAYLOAD ACTIVE UNKNOWN

§ Identity

Operator
Country
US
Launch date
2025-11-28
Launch site
AFWTR
Launch vehicle
Mass (kg)
RCS (m²)

Purposes: earth_obs

External: N2YO · Heavens-Above · Gunter

§ Orbital elements

Epoch: 2026-09-19T11:11:57.873120Z

Period
94.68 min
Inclination
97.4153°
Eccentricity
0.0005302
Mean motion
15.20886676 rev/d
Perigee alt
499.5 km
Apogee alt
506.8 km
Semi-major
6,881.3 km
B*
2.1049e-4
RAAN
334.5595°
Arg perigee
56.4296°
Mean anomaly
303.7445°
Rev number
4,474

§ Raw data

FLOCK 4H-301 66733U 25276BV  26262.46664205  .00004584  00000+0  21049-3 0  99972 66733  97.4153 334.5595 0005302  56.4296 303.7445 15.20886676 44746

JSON: /api/v1/satellites/66733 · /tle

For live sub-satellite position, see the globe view (requires WebGL).

§ Visibility from observer

Set your observer location to see the next 7 days of passes ≥ 10°. The values pass through the URL so the page stays shareable.

No JS? Fill the form by hand. The geolocation button needs JavaScript.